www.pogodaiklimat.ru

Погода и климат >> Архив погоды >> Италия >> Альгеро


ПОГОДА в Альгеро

  • Прогноз погоды в Альгеро
  • Монитор погоды в Альгеро

АРХИВ ПОГОДЫ в Альгеро

Время (UTC), дата Ветер
(напр.,м/с)
 
Видим.   Явления Облачность Т
(С)
Тd
(С)
f
(%)
Тe
(С)
Тes
(С)
Комфортность P
(гПа)
Po
(гПа)
Тmin
(С)
Tmax
(С)
R
(мм)
R24
(мм)
S
(см)
09 15.04 В 2 30 км 3/3 750 м
[Cu hum]
+16.0 +8.7 62 +16 +24 1017.2 1014.0
12 15.04 СВ 6 н/о н/о +18.0 +9.6 58 +18 +18 1017.3 1014.0
15 15.04 СВ 8 30 км 4/1 1200 м
[Cu hum Ci fib]
+17.8 +9.3 57 +17 +18 1016.7 1013.4
18 15.04 СВ 5 25 км 8/0
[Cs]
+14.0 +9.6 75 +12 +12 1017.5 1014.3 +18.7
21 15.04 СВ 3 30 км 3/0
[Ci fib]
+11.3 +9.1 86 +9 +9 1018.7 1015.5
00 16.04 СЗ 2 30 км ясно +10.4 +8.3 87 +9 +9 1018.6 1015.4
03 16.04 30 км ясно +10.6 +9.1 90 1017.7 1014.4
06 16.04 С 2 20 км 9/0 2000 м
[As op]
+12.2 +9.0 81 +12 +12 1019.1 1015.9 +9.7
09 16.04 В 1 н/о н/о +15.1 +10.6 74 +16 +16 1019.6 1016.3
12 16.04 СВ 4 20 км 5/1 600 м
[Cu hum Cs]
+18.3 +8.7 53 +18 +28 1018.9 1015.7
15 16.04 СВ 4 25 км 1/0
[Ci fib]
+18.7 +10.2 58 +19 +24 1018.8 1015.5
18 16.04 СВ 3 20 км ясно +15.3 +10.4 73 +15 +15 1019.5 1016.2 +19.9
21 16.04 15 км ясно +10.7 +9.7 94 1020.6 1017.4
00 17.04 В 1 25 км ясно +7.8 +7.3 97 +7 +7 1020.4 1017.2
03 17.04 штиль 0 25 км ясно +6.6 +6.4 99 +5 +5 1019.7 1016.4
06 17.04 В 1 25 км ясно +8.9 +8.0 94 +8 +10 1020.3 1017.1 +5.5
09 17.04 30 км ясно +17.0 +9.8 63 1020.6 1017.4
12 17.04 Ю 4 25 км 5/5 1050 м
[Cu hum]
+19.3 +12.7 66 +21 +27 комфорт 1019.8 1016.6
15 17.04 СВ 4 35 км 1/1 1200 м
[Cu hum]
+19.5 +10.2 55 +21 +26 комфорт 1018.9 1015.7
18 17.04 СВ 3 30 км 4/0
[Ci fib]
+16.2 +8.8 62 +16 +16 1018.6 1015.4 +20.6
21 17.04 30 км ясно +11.3 +10.4 94 1019.9 1016.7
00 18.04 СВ 1 н/о н/о +10.1 +9.3 95 +9 +9 1020.1 1016.9
03 18.04 С 2 30 км ясно +10.5 +9.6 94 +9 +9 1018.7 1015.5
06 18.04 С 3 35 км 8/0
[Cs]
+12.6 +9.8 83 +11 +12 1018.9 1015.6 +8.7
09 18.04 В 4 35 км 8/0
[Cs]
+19.0 +9.7 55 +20 +26 1019.1 1015.9
12 18.04 В 5 35 км 8/0
[Cs]
+22.5 +9.7 44 +24 +32 комфорт 1017.8 1014.5
15 18.04 Ю 2 55 км 9/0
[Ac trans Cs]
+22.8 +9.8 44 +25 +31 комфорт 1017.1 1013.9
18 18.04 ЮВ 4 45 км 4/0
[Ci]
+18.7 +6.5 45 +19 +19 1018.0 1014.8 +23.7
21 18.04 СВ 4 30 км 3/0
[Ci fib]
+13.5 +7.1 65 +12 +12 1019.8 1016.6
00 19.04 СВ 4 25 км ясно +10.8 +6.0 72 +9 +9 1020.5 1017.2
03 19.04 СВ 5 25 км ясно +12.6 +5.5 62 +11 +11 1020.8 1017.6
06 19.04 СВ 3 55 км 10/0
[Cs]
+13.8 +7.9 68 +13 +14 1021.8 1018.6 +10.5
09 19.04 В 6 55 км 1/0
[Ci fib]
+20.1 +7.5 44 +21 +26 комфорт 1022.5 1019.3
12 19.04 В 5 45 км 3/1 1350 м
[Sc diur, vesp Ci fib]
+23.9 +9.3 39 +25 +32 комфорт 1021.9 1018.7
15 19.04 З 4 20 км 1/0
[Ac trans]
+22.3 +10.7 48 +24 +29 комфорт 1021.3 1018.0
18 19.04 В 5 25 км ясно +19.8 +6.2 41 +20 +20 1022.0 1018.8 +24.6
21 19.04 СВ 4 25 км ясно +13.8 +8.7 71 +13 +13 1023.3 1020.1
00 20.04 СВ 4 30 км ясно +12.3 +7.1 71 +10 +10 1022.6 1019.4
03 20.04 СВ 4 н/о н/о +11.9 +7.1 72 +10 +10 1021.7 1018.4
06 20.04 СВ 4 25 км 9/0
[Cs]
+14.0 +9.0 72 +13 +14 1021.4 1018.1 +10.3
09 20.04 В 5 20 км 9/0
[Cs]
+18.4 +8.3 52 +18 +23 1020.4 1017.1
12 20.04 В 9 20 км 9/0
[Cs]
+20.8 +5.2 36 +21 +22 комфорт 1018.5 1015.2
15 20.04 В 6 29 км 10/0
[As op]
+20.3 +5.3 37 +21 +21 комфорт 1016.7 1013.5
18 20.04 В 5 28 км 10/0
[As op Cs]
+18.2 +2.3 35 +18 +18 1016.1 1012.9 +22.1
21 20.04 В 5 30 км 10/0
[Cs]
+16.2 +6.2 51 +15 +15 1017.5 1014.2
00 21.04 СВ 4 30 км 9/0
[Cs]
+14.8 +6.4 57 +14 +14 1016.7 1013.4
03 21.04 В 5 25 км 9/0
[Cs]
+14.9 +6.7 58 +14 +14 1014.1 1010.9
09 21.04 В 7 26 км 10/0
[Ac cast Cs]
+19.6 +9.7 53 +20 +23 1012.5 1009.3
12 21.04 ЮВ 8 29 км 10/0
[Cs]
+24.1 +5.3 30 +24 +27 комфорт 1010.0 1006.8 3
15 21.04 В 8 20 км 10/0
[As trans]
+21.9 +6.6 37 +23 +23 комфорт 1008.0 1004.8
18 21.04 В 4 н/о н/о +18.6 +7.9 50 +19 +19 1006.5 1003.3 +24.3 3
21 21.04 В 7 30 км 8/0
[As trans]
+17.1 +8.7 58 +16 +16 1006.6 1003.3
00 22.04 СВ 5 25 км ясно +16.4 +8.6 60 +15 +15 1004.0 1000.8
03 22.04 С 3 25 км ясно +15.8 +9.8 67 +15 +15 1001.5 998.3
06 22.04 В 8 15 км 10/1 1350 м
[Frnb As op Cs]
+18.3 +9.8 58 +18 +18 999.0 995.8 +14.3

 

Местоположение метеостанции Альгеро (Италия): широта 40.63 долгота 8.28 высота над уровнем моря 40 м.

В архиве по умолчанию представлена погода в Альгеро за последнюю неделю. Архивные данные за месяц целиком и за предыдущие месяцы, начиная с января 2011 года, Вы можете получить, выбрав интересующий диапазон дат из раскрывающегося списка и нажав кнопку "Ввод!".


*Определитесь, кто Вы:
робот инопланетянин человек

Внимание! Время в таблицах - всемирное. Для получения местного времени необходимо прибавить поправку, которая равна 1 ч.

Смотрите также архив погоды в соседних городах и на ближайших метеорологических станциях:

Погода на Капо Кацция (Италия) (11 км)
Погода на Капо Фраска (Италия) (99 км)
Погода в Ольвии (Италия) (109 км)
Погода на Мысе Пертюзато (Франция) (111 км)
Погода в Фигари (Франция) (119 км)
Погода на Капо Беллависто (Италия) (145 км)
Погода в Ла Парате (Франция) (146 км)
Погода в Аяччо (Франция) (150 км)
Погода в Дечимоманну (Италия) (154 км)
Погода в Соленцаре (Франция) (171 км)

Пояснения к столбцам:

Ветер - указаны скорость ветра в м/с - средняя за 10 мин, порывы в срок и между сроками (в фигурных скобках) и направление, откуда дует ветер: С - северный, СВ - северо-восточный, В - восточный, ЮВ - юго-восточный, Ю - южный, ЮЗ - юго-западный, З - западный, СЗ - северо-западный.
Видимость - горизонтальная дальность видимости в метрах или километрах. При видимости от 1 до 10 км при отсутствии осадков обычно наблюдается дымка, при ухудшении видимости до 1 км и менее - туман. В сухую погоду видимость может ухудшаться дымом, пылью или мглою.
Явления - указаны атмосферные явления, наблюдавшиеся в срок или в последний час перед сроком; фигурными скобками обозначены явления, наблюдавшиеся между сроками (за 1-3 часа до срока); квадратными скобками обозначены град или гололедные отложения с указанием их диаметра в мм.
Облачность - указаны через наклонную черту общая и нижняя облачность в баллах и высота нижней границы облаков в метрах; квадратными скобками обозначены формы облаков: Ci - перистые, Cs - перисто-слоистые, Cc - перисто-кучевые, Ac - высококучевые, As - высокослоистые, Sc - слоисто-кучевые, Ns - слоисто-дождевые, Cu - кучевые, Cb - кучево-дождевые. Подробнее классификацию облаков см. в Атласе облаков (PDF).
T - Температура воздуха - температура, измеренная на высоте 2 м над землей.
Td - Температура точки росы - температура, при понижении до которой содержащийся в воздухе водяной пар достигнет насыщения.
f - Относительная влажность воздуха - влажноcть воздуха, измеренная на высоте 2 м над землей.
Te - Эффективная температура - температура, которую ощущает одетый по сезону человек в тени. Характеристика душности погоды. При расчете учитывается влияние влажности воздуха и скорости ветра на теплоощущения человека.
Tes - Эффективная температура на солнце - температура, которую ощущает человек, с поправкой на солнечный нагрев. Характеристика знойности погоды. Зависит от высоты солнца над горизонтом, облачности и скорости ветра. Ночью, в пасмурную погоду, а также при ветре 12 м/с и более поправка равна нулю.
P - Атмосферное давление - приведенное к уровню моря атмосферное давление.
Po - Атмосферное давление - измеренное на уровне метеостанции атмосферное давление.
Tmin - Минимальная температура - минимум температуры воздуха на высоте 2 м над землей.
Tmax - Максимальная температура - максимум температуры воздуха на высоте 2 м над землей.
R - Количество осадков - Количество выпавших осадков за период времени, мм. При наведении курсора мыши на число - период времени, за который выпало указанное количество осадков.
R24 - Количество осадков - Количество выпавших осадков за 24 часа, мм.
S - Снежный покров - Высота снежного покрова, см. При наведении курсора мыши на число - состояние снежного покрова и степень покрытия местности в баллах.